sat.trackr.live / text

‹ back to catalog

STARLINK-6308

NORAD 56534 · 2023-065AH

PAYLOAD ACTIVE UNKNOWN

§ Identity

Operator
Country
US
Launch date
2023-05-14
Launch site
AFETR
Launch vehicle
Mass (kg)
RCS (m²)

Purposes: comms

External: N2YO · Heavens-Above · Gunter

§ Orbital elements

Epoch: 2026-09-20T22:24:58.716288Z

Period
94.27 min
Inclination
43.0031°
Eccentricity
0.0000685
Mean motion
15.27573716 rev/d
Perigee alt
482.6 km
Apogee alt
483.5 km
Semi-major
6,861.2 km
B*
-5.8423e-6
RAAN
175.6535°
Arg perigee
265.3978°
Mean anomaly
94.6795°
Rev number
18,662

§ Raw data

STARLINK-63081 56534U 23065AH  26263.93401292 -.00000423  00000+0 -58423-5 0  99952 56534  43.0031 175.6535 0000685 265.3978  94.6795 15.27573716186624

JSON: /api/v1/satellites/56534 · /tle

For live sub-satellite position, see the globe view (requires WebGL).

§ Visibility from observer

Set your observer location to see the next 7 days of passes ≥ 10°. The values pass through the URL so the page stays shareable.

No JS? Fill the form by hand. The geolocation button needs JavaScript.